Back to catalog

FENGYUN 1C DEB

LostSSO
NORAD 38821·DEBRIS·🇨🇳 China

Launched May 10, 1999 from Taiyuan Satellite Launch Center

Loading…

Next Passes (next 24 hours)

TLE

StaleSource: Space-Track

Epoch: Feb 4, 2026, 11:06 UTC

1 38821U 99025EVM 26035.46276684  .00002547  00000-0  16524-2 0  9994
2 38821  98.5293 268.3570 0112156  49.7851  70.1928 14.00423787685508

Track FENGYUN 1C DEB in real time with AllMySat

Download on the App Store